Find ATHENA-FIDUS

NORAD ID: 39509 Int'l Des: 2014-006 Owner: CNES/ASI Country: F operational
HEOCIRCULARGSOGEO

Live-Position

3D-Globus wird geladen...

Über ATHENA-FIDUS

Beschreibung wird geladen...

Nächste Überflüge

Passes for default location (London). Set your location on the main map for personalized predictions.

Höhenverlauf

Loading altitude history...

Zweizeiliger Elementsatz

1 39509U 14006B 26121.49241079 .00000000 00000-0 00000+0 0 9994
2 39509 0.0142 259.5979 0001789 152.4948 22.3941 1.00273191 44619
Epoch: 1. Mai 2026 • Age: 12 hours

Aktueller Status

Höhe 35792.3 km
Geschwindigkeit 3.07 km/s
Subsatellitenpunkt -0.00°S, 37.78°E
Startdatum 6. Feb. 2014
Alter 12.2 years
Typ other

Technische Details

Klassifizierung Payload
Masse 3080.00 kg
Trockenmasse 1500.00 kg
Gesamtmasse 3080.00 kg
Länge 3.00 m
Durchmesser 1.80 m
Spannweite 20.00 m
Form Box+2 pan
Hersteller THALES
Bus-Typ Spacebus 4000B2
Phasenstatus In Orbit
Besitzer/Staat CNES/ASI/F

Most Searched